Temperature
10 10 10 10 10 10 10 10 10 10 10 10 10 10 10 10 10 9 9 10 9 10 10 10 10 10 10 10 10 10 10 11 11 11 11 11 11 11
10 10 10 10 10 10 10 10 10 10 9 9 9 9 9 9 9 9 9 9 9 9 9 9 9 9 10 10 10 10 10 10 10 10 10 10 11 11
9 9 9 9 9 9 10 9 10 9 9 9 9 9 9 9 9 9 9 9 9 9 9 9 9 9 9 9 9 9 10 10 10 10 10 10 10 10
9 9 9 9 9 9 9 9 9 9 9 8 9 9 9 9 8 8 8 8 8 8 8 8 9 9 9 9 9 9 9 9 9 10 10 10 10 10
9 9 9 9 8 8 8 8 8 8 8 8 8 8 8 8 8 8 8 8 8 8 8 8 8 8 8 8 9 9 9 9 9 9 9 9 9 9
8 8 8 8 8 8 8 8 8 8 8 8 7 8 8 8 8 8 8 8 8 8 8 8 8 8 8 8 8 8 8 8 9 9 9 9 9 9
8 8 8 8 8 8 8 8 8 7 7 7 7 7 7 7 7 7 7 7 7 7 7 7 7 7 8 8 8 8 8 8 8 8 8 9 9 9
8 8 8 8 8 8 7 7 7 7 7 7 7 6 7 7 7 7 7 7 7 7 7 7 7 7 7 7 7 7 8 8 8 8 8 8 8 8
8 8 7 7 7 7 7 7 7 7 7 6 6 6 6 6 6 6 6 6 6 7 7 7 7 7 7 7 7 7 7 7 7 7 8 8 8 8
7 7 7 7 7 7 7 6 6 6 6 6 6 6 6 6 6 6 6 6 6 6 6 6 6 7 7 7 7 7 7 7 7 7 7 7 7 7
7 7 7 7 7 7 6 6 6 6 6 6 6 6 6 6 6 6 6 6 6 6 6 6 6 6 6 6 6 6 7 7 7 7 7 7 7 7
7 7 7 6 6 6 6 6 6 6 6 6 6 5 5 5 6 5 5 5 5 5 5 5 5 5 6 6 6 6 6 6 6 6 6 6 6 7
7 6 6 6 6 6 6 6 6 6 6 5 5 5 5 5 5 5 5 5 5 5 5 5 5 5 5 5 6 6 6 6 6 6 6 6 6 6
6 6 6 6 6 6 6 5 5 5 5 5 5 5 5 5 5 5 5 5 5 5 5 5 5 5 5 5 5 6 6 5 6 6 6 5 5 5
6 6 6 6 5 5 5 5 5 5 5 5 5 5 4 4 4 4 4 5 5 5 5 5 5 5 5 5 5 5 5 5 5 5 5 5 5 5
6 5 5 5 5 5 5 5 5 5 5 4 4 4 4 4 4 4 4 4 4 4 4 4 4 4 4 4 4 5 5 5 5 5 5 5 5 5
5 5 5 5 5 4 4 4 4 4 4 4 4 4 4 4 4 4 4 4 4 4 4 4 4 4 4 4 4 4 4 4 4 4 4 4 4 4
5 5 4 4 4 4 4 4 4 4 4 4 4 4 4 4 4 4 3 3 3 4 4 4 3 4 4 4 4 4 4 4 4 4 4 4 4 4
5 4 4 4 4 4 4 4 3 3 3 3 3 3 3 3 3 3 3 3 3 3 3 3 3 3 3 3 4 4 4 4 4 4 4 4 4 4
4 4 4 4 4 4 3 3 3 3 3 3 3 3 3 3 3 3 3 3 3 3 3 3 3 3 3 3 3 3 3 3 3 3 3 3 3 3
4 4 4 3 3 3 3 3 3 3 3 3 3 3 3 3 3 3 3 3 3 3 2 2 3 3 3 2 3 3 3 3 3 3 3 3 3 3
4 4 3 3 3 3 3 3 3 3 3 3 3 3 3 3 3 3 2 2 2 2 2 2 2 2 2 2 2 2 3 3 3 3 3 3 2 2
3 3 3 3 3 3 3 3 3 2 2 2 2 2 2 2 2 2 2 2 2 2 2 2 2 2 2 2 2 2 2 2 2 2 2 2 2 2
Wind_Speed
2 2 2 2 2 1 1 0 0 1 2 1 1 0 2 3 3 3 3 2 3 3 3 3 4 5 5 6 6 7 8 9 8 8 7 7 7 7
1 2 2 1 2 1 1 1 1 0 1 1 1 0 0 1 1 2 2 2 2 2 2 3 3 4 5 6 6 7 7 8 8 7 7 7 7 7
2 2 2 2 2 2 1 2 2 1 0 1 1 1 1 1 1 1 1 2 2 2 2 2 2 3 4 5 6 6 7 8 7 7 7 7 7 7
2 2 2 2 2 2 1 1 1 1 0 1 1 1 1 1 0 0 0 1 1 2 2 1 1 1 2 4 5 6 6 7 6 6 6 7 7 7
2 2 2 2 2 2 1 1 1 1 1 0 2 1 1 1 1 1 1 0 1 1 1 1 2 1 1 2 3 4 5 5 5 5 5 6 6 6
1 2 2 2 2 2 2 1 1 1 1 1 1 1 1 1 1 1 1 1 1 1 1 2 2 2 1 1 1 2 3 3 3 4 4 5 5 5
1 1 1 1 2 2 2 1 1 1 1 1 1 2 1 1 2 2 1 2 2 1 1 2 2 2 2 2 2 2 2 2 2 2 3 3 4 4
1 1 1 0 2 3 3 3 2 1 1 1 1 2 2 2 2 2 1 2 2 1 1 2 2 1 2 3 3 3 2 3 3 1 1 2 3 3
1 2 2 1 2 1 3 3 3 3 2 2 2 2 2 2 2 2 2 2 3 2 1 2 2 2 2 3 3 3 3 3 3 3 2 2 3 3
2 1 0 0 1 2 2 2 2 2 2 1 1 3 3 3 3 3 3 2 2 1 0 2 2 2 2 3 4 4 4 5 4 3 3 3 3 3
1 1 0 0 3 3 1 1 1 2 2 3 3 4 5 4 2 1 2 1 2 2 1 1 2 3 2 2 4 5 6 6 5 4 3 3 3 3
1 1 1 1 3 3 2 1 2 3 2 3 3 5 4 3 3 2 2 2 1 2 1 1 2 2 2 2 1 3 5 6 5 5 4 4 4 3
1 1 1 1 2 3 3 2 3 3 2 2 2 2 2 2 2 2 2 2 2 2 2 1 2 2 2 2 2 2 2 2 3 4 5 5 4 3
2 1 1 2 2 2 2 3 3 3 2 2 2 2 1 2 2 2 3 3 3 4 4 2 1 2 2 2 3 2 2 2 2 2 3 4 4 4
2 2 2 1 2 2 3 3 2 2 2 2 2 3 2 2 2 2 2 3 4 4 3 3 2 2 2 3 3 3 2 2 2 2 2 3 3 2
2 2 2 2 2 2 2 2 2 2 2 2 3 3 2 2 2 1 2 2 2 3 3 3 3 2 3 3 3 3 2 2 2 2 2 2 3 2
1 1 1 1 1 2 2 2 2 2 2 2 2 2 2 2 2 2 2 2 2 3 3 3 3 3 2 2 3 3 3 3 3 2 2 2 3 3
1 1 1 1 2 2 2 2 1 2 2 2 2 2 2 2 2 2 2 2 3 3 3 2 2 2 2 3 3 4 3 3 3 2 2 2 4 3
1 2 2 2 2 2 2 2 2 2 2 2 2 2 2 2 2 3 3 3 3 3 3 2 1 1 3 5 4 4 4 3 3 3 3 3 4 4
2 2 2 2 2 2 2 1 2 2 1 2 2 2 2 2 2 3 3 3 3 3 3 3 2 3 4 5 5 5 6 4 3 4 3 3 3 4
3 3 2 2 2 2 2 2 2 2 2 2 2 2 2 2 2 3 3 4 4 3 4 4 5 4 3 2 3 4 4 6 6 4 3 2 3 2
3 3 2 2 2 2 2 2 2 2 2 2 2 2 2 2 2 3 3 3 3 3 4 4 3 2 2 3 4 5 4 4 4 6 5 6 3 4
2 2 2 2 2 2 2 2 3 2 2 2 2 2 2 2 2 2 3 3 3 3 3 3 2 2 2 3 4 4 4 3 2 2 3 4 5 6
Wind_Direction
359 4 10 2 349 352 9 53 172 276 282 286 341 284 92 112 114 107 91 69 69 66 51 49 44 36 31 29 30 25 21 22 20 18 17 21 32 39
349 2 354 338 356 7 3 352 5 204 267 291 311 276 65 75 115 106 122 88 90 88 68 67 51 43 36 32 30 26 25 24 21 22 26 36 40 39
356 352 338 346 4 351 4 2 356 11 225 299 319 346 16 24 34 76 130 124 126 136 102 82 58 49 39 34 29 25 27 23 20 26 37 41 39 38
337 340 332 348 356 330 355 344 328 333 105 299 313 343 335 318 57 33 34 137 170 173 144 133 103 70 40 33 29 25 24 18 21 32 38 37 34 32
341 339 338 352 334 331 317 286 300 334 4 298 299 326 335 344 356 323 295 269 243 212 186 194 201 188 102 30 27 24 24 16 22 36 40 33 29 29
355 349 345 343 324 318 313 305 308 312 314 290 288 299 308 321 348 303 299 302 305 299 298 259 233 212 208 275 333 2 5 3 15 36 39 35 28 24
314 293 293 311 328 323 321 316 330 298 286 285 276 298 304 326 307 300 303 296 299 279 291 263 227 225 228 247 264 297 318 327 338 21 25 20 16 13
280 277 266 303 353 349 335 338 317 266 263 264 272 277 284 280 296 293 290 322 299 291 285 277 239 241 230 228 245 255 276 290 285 285 322 336 345 348
263 281 305 352 16 349 335 339 345 337 292 246 237 254 262 272 279 284 278 270 275 274 332 278 266 248 250 258 251 247 258 268 267 263 269 284 310 322
267 268 251 190 328 333 317 325 322 334 325 313 255 260 260 256 244 256 257 268 295 304 73 289 291 279 268 245 247 250 261 255 254 257 260 266 285 300
282 308 346 110 313 325 309 282 289 285 305 294 290 278 271 279 292 304 299 296 290 286 285 275 300 300 277 244 240 242 255 250 252 251 254 268 279 284
265 288 334 342 325 321 298 265 265 270 284 300 298 293 277 267 273 251 245 232 270 282 280 282 299 326 308 280 254 253 256 253 249 250 256 265 266 267
266 261 255 285 302 304 304 267 269 290 284 281 285 284 271 256 254 262 250 222 226 261 258 250 281 289 271 290 287 266 249 261 261 262 262 255 248 235
274 274 255 276 288 299 298 294 292 301 271 269 281 287 280 266 260 264 271 266 251 249 242 228 252 257 270 286 287 287 278 276 246 243 258 260 255 260
281 292 290 291 295 288 291 296 290 269 260 262 262 264 266 263 268 271 279 292 294 278 257 265 249 254 242 262 278 285 288 278 251 235 235 231 233 236
309 279 278 270 284 286 301 289 266 254 255 253 266 272 284 292 281 269 264 264 282 295 294 278 260 240 251 262 262 277 277 259 260 251 247 245 247 226
277 284 252 265 269 272 263 259 271 276 272 269 268 285 288 277 272 265 255 259 261 266 287 303 300 277 238 247 259 264 271 274 255 252 256 265 258 233
179 211 224 228 234 245 261 266 270 273 268 263 269 265 262 259 270 279 263 251 255 260 265 273 302 325 319 303 250 245 252 259 259 244 232 249 265 261
184 227 232 230 234 241 250 258 264 264 260 256 260 262 263 263 268 269 262 260 262 263 269 267 259 248 277 285 281 253 244 260 254 248 237 243 251 255
220 241 243 246 245 244 247 252 264 272 272 266 267 267 267 268 273 265 260 261 264 272 275 268 242 233 242 258 273 280 252 235 241 247 249 254 259 274
232 246 245 242 246 247 249 247 251 263 266 265 263 261 257 265 273 265 265 278 275 269 265 261 254 252 261 273 280 282 274 261 247 240 235 242 265 270
235 241 245 244 240 240 242 242 248 257 255 252 262 266 261 258 264 269 267 271 268 262 266 268 267 262 258 252 266 278 287 295 287 276 257 238 228 242
236 240 245 253 250 244 238 236 239 244 245 250 258 269 270 265 265 268 271 271 274 274 277 282 286 277 263 250 260 272 280 286 287 288 281 269 254 252
Height
1524 1524 1523 1523 1523 1522 1522 1522 1523 1521 1522 1522 1522 1522 1521 1521 1520 1519 1517 1517 1516 1516 1515 1514 1514 1513 1512 1511 1511 1510 1509 1508 1506 1505 1505 1504 1504 1504
1523 1522 1522 1521 1521 1520 1520 1521 1520 1520 1520 1520 1520 1520 1520 1519 1518 1517 1516 1515 1515 1515 1514 1513 1513 1512 1511 1510 1509 1509 1508 1506 1505 1504 1503 1502 1503 1503
1521 1521 1520 1520 1519 1519 1518 1518 1518 1518 1518 1518 1518 1518 1518 1517 1516 1516 1515 1514 1514 1513 1513 1512 1511 1511 1510 1509 1508 1507 1506 1505 1504 1503 1501 1501 1501 1502
1519 1519 1518 1518 1517 1517 1516 1516 1516 1516 1516 1515 1516 1516 1515 1515 1514 1514 1513 1513 1512 1512 1511 1511 1510 1509 1509 1508 1507 1506 1505 1504 1503 1502 1501 1500 1501 1501
1518 1517 1517 1516 1515 1515 1514 1514 1514 1514 1514 1514 1513 1514 1513 1513 1512 1512 1511 1511 1511 1510 1510 1509 1509 1508 1508 1507 1506 1505 1504 1503 1502 1501 1500 1500 1500 1500
1516 1515 1515 1514 1514 1513 1512 1512 1512 1512 1512 1511 1511 1511 1511 1511 1510 1510 1509 1509 1509 1508 1508 1508 1507 1507 1506 1505 1505 1504 1503 1502 1502 1501 1500 1499 1499 1499
1513 1513 1513 1512 1512 1511 1510 1510 1510 1509 1509 1509 1509 1509 1508 1508 1507 1508 1507 1507 1507 1507 1506 1506 1505 1505 1504 1503 1503 1502 1502 1501 1500 1500 1499 1499 1498 1498
1511 1511 1510 1510 1509 1508 1508 1507 1507 1507 1506 1506 1506 1506 1505 1506 1505 1505 1505 1504 1504 1505 1504 1504 1503 1502 1501 1501 1500 1500 1500 1499 1498 1498 1498 1497 1497 1496
1508 1508 1508 1507 1506 1505 1505 1505 1504 1504 1504 1504 1503 1503 1503 1503 1503 1503 1502 1502 1502 1502 1502 1501 1501 1500 1499 1499 1498 1498 1498 1497 1497 1496 1496 1496 1495 1495
1506 1505 1505 1504 1503 1503 1502 1502 1501 1501 1501 1501 1501 1501 1501 1501 1501 1500 1500 1500 1500 1500 1500 1499 1498 1497 1497 1496 1496 1496 1495 1495 1495 1495 1494 1494 1493 1493
1502 1502 1502 1501 1500 1500 1499 1498 1498 1498 1498 1498 1498 1498 1498 1498 1498 1497 1497 1496 1496 1496 1497 1496 1495 1494 1494 1494 1493 1493 1493 1492 1492 1492 1492 1492 1492 1491
1499 1498 1498 1498 1497 1497 1496 1495 1495 1494 1495 1495 1495 1494 1494 1494 1494 1494 1494 1494 1493 1493 1494 1494 1492 1492 1491 1491 1491 1490 1490 1489 1490 1489 1489 1489 1489 1488
1495 1494 1494 1494 1493 1493 1493 1492 1492 1492 1492 1492 1492 1491 1491 1491 1491 1491 1491 1491 1491 1490 1491 1491 1490 1489 1489 1487 1487 1487 1487 1486 1486 1486 1486 1486 1486 1485
1491 1491 1491 1490 1490 1489 1489 1489 1489 1489 1488 1488 1488 1488 1487 1487 1487 1487 1487 1487 1488 1488 1488 1488 1487 1486 1486 1484 1484 1483 1483 1483 1483 1482 1482 1483 1483 1482
1488 1488 1487 1487 1486 1486 1485 1486 1485 1485 1485 1485 1484 1484 1484 1484 1485 1484 1484 1484 1484 1484 1484 1484 1484 1483 1483 1482 1480 1479 1479 1479 1479 1479 1479 1479 1479 1478
1484 1484 1484 1483 1483 1482 1482 1482 1482 1482 1482 1481 1481 1481 1481 1481 1481 1481 1480 1480 1480 1480 1480 1480 1480 1480 1479 1478 1478 1476 1476 1475 1475 1475 1475 1475 1475 1474
1480 1480 1480 1480 1479 1479 1478 1478 1479 1478 1478 1478 1478 1478 1477 1477 1477 1477 1477 1477 1476 1476 1475 1476 1476 1476 1475 1475 1473 1473 1472 1471 1471 1471 1471 1470 1470 1470
1477 1476 1476 1476 1476 1476 1475 1474 1475 1475 1475 1475 1475 1474 1474 1474 1474 1474 1474 1473 1473 1472 1472 1471 1471 1471 1471 1470 1470 1469 1468 1468 1467 1467 1467 1466 1465 1466
1473 1473 1473 1473 1473 1472 1472 1472 1471 1471 1472 1471 1471 1470 1470 1470 1470 1470 1469 1469 1469 1468 1468 1468 1467 1467 1466 1464 1464 1465 1464 1463 1463 1463 1462 1462 1461 1461
1470 1470 1469 1469 1469 1469 1469 1468 1468 1468 1468 1468 1467 1467 1466 1466 1466 1465 1465 1465 1464 1464 1463 1463 1463 1462 1462 1461 1460 1459 1460 1460 1459 1458 1458 1457 1457 1458
1466 1466 1466 1466 1466 1466 1466 1465 1465 1465 1465 1465 1464 1463 1463 1463 1462 1462 1461 1461 1460 1460 1459 1458 1458 1459 1458 1457 1456 1454 1455 1455 1455 1454 1454 1453 1452 1452
1463 1463 1463 1463 1463 1463 1463 1462 1462 1461 1461 1461 1460 1460 1460 1459 1458 1458 1457 1457 1456 1455 1454 1454 1454 1454 1453 1452 1450 1449 1449 1450 1450 1450 1451 1451 1449 1447
1460 1459 1459 1459 1459 1459 1459 1458 1458 1458 1458 1457 1457 1456 1456 1455 1455 1454 1453 1453 1452 1451 1450 1450 1449 1449 1448 1447 1447 1446 1446 1446 1445 1445 1446 1446 1446 1446